Wind_Speed
32 33 33 33 33 34 35 36 37 38 39 40 41 42 42 42 43 43 43 44 44 45 46 47 48 48 47 48 49 50 51 52 52 52 52 53 54 53 54 54 54 54 55
33 34 35 35 35 35 36 36 37 39 40 41 42 43 43 43 44 44 44 45 45 46 47 48 49 50 50 50 51 51 52 52 53 52 52 53 53 53 53 54 55 55 55
33 35 36 36 37 37 38 38 39 39 41 42 43 44 44 44 44 45 46 46 47 47 48 49 49 50 51 51 52 52 53 53 53 53 53 53 53 54 54 54 55 55 55
34 36 37 37 38 39 39 39 40 41 43 44 45 45 46 46 46 46 47 47 48 49 49 49 50 51 52 52 52 52 53 53 54 54 54 54 54 55 55 55 55 55 56
36 37 38 39 40 41 42 42 43 44 45 46 46 47 47 47 47 47 48 49 49 49 50 50 51 52 52 53 53 53 53 53 53 54 54 54 55 55 55 55 55 56 56
37 38 39 40 42 43 44 45 46 46 47 47 48 48 48 48 48 49 49 49 50 50 50 51 51 52 53 53 53 54 54 54 53 54 54 54 55 56 56 56 56 56 56
38 39 41 42 43 44 45 46 46 47 48 48 49 49 49 49 49 49 49 49 50 50 51 52 52 53 53 53 53 53 54 53 54 54 54 55 55 56 56 56 56 56 56
40 41 42 43 44 45 46 47 47 48 49 49 49 49 49 50 50 50 50 51 51 52 52 52 53 53 54 54 53 53 53 54 54 54 55 55 56 56 56 56 56 56 55
43 44 45 45 46 46 47 48 49 49 50 50 50 50 50 50 51 51 52 52 52 52 52 52 53 54 54 55 55 54 54 55 55 55 55 55 55 55 55 55 55 54 53
45 46 47 47 48 48 49 49 50 50 51 51 51 51 51 52 52 53 53 53 53 53 53 53 54 54 54 55 55 54 55 54 55 54 54 54 54 54 54 53 53 52 52
48 48 49 50 50 51 51 52 52 52 52 52 52 52 52 53 53 53 53 53 53 53 53 53 53 54 54 54 54 55 54 55 55 54 53 53 53 53 53 52 52 51 51
49 50 50 51 52 52 52 53 53 52 53 53 53 53 53 53 54 54 53 53 53 53 52 53 53 53 53 53 53 53 53 54 54 53 53 53 53 53 52 51 51 51 51
49 49 50 51 52 53 53 53 53 53 53 53 54 53 54 54 53 53 53 53 52 52 52 52 52 52 52 53 52 52 52 52 52 52 53 53 53 53 52 52 52 52 51
49 49 50 51 51 52 52 53 53 53 53 53 53 53 53 53 53 53 52 52 52 52 51 51 51 52 52 51 51 51 51 51 51 51 52 52 51 51 51 52 51 51 50
48 49 50 51 51 51 51 51 52 52 52 52 53 53 52 52 53 52 51 51 50 51 51 51 50 50 50 50 50 50 50 50 50 50 50 50 50 50 50 50 50 50 49
49 49 50 50 50 50 50 50 50 51 51 51 52 52 52 52 51 51 50 49 49 50 50 49 49 49 49 49 49 49 49 49 49 49 49 48 48 48 48 48 49 48 48
49 49 49 50 50 50 50 50 50 49 50 50 50 51 51 50 49 48 48 48 48 49 48 48 47 47 47 46 46 47 47 47 47 47 47 46 46 46 47 47 46 46 45
48 49 49 49 50 50 50 50 50 49 49 49 49 49 49 48 47 47 47 47 47 47 47 46 45 45 44 44 44 45 45 45 45 44 44 44 44 44 44 43 43 43 42
48 48 49 49 49 49 50 50 49 49 48 48 47 47 46 46 45 45 45 45 45 44 44 43 43 43 42 42 43 43 42 42 42 41 41 41 41 41 40 40 39 39 38
46 46 47 47 47 47 48 48 47 47 46 45 44 44 43 43 43 43 43 43 42 42 42 41 41 40 40 40 41 40 39 39 38 38 38 37 37 37 37 36 36 35 35
44 44 45 45 45 45 45 45 44 44 43 42 41 41 41 41 41 40 40 40 40 40 40 39 38 38 38 38 38 37 36 36 35 35 35 35 35 34 34 33 33 33 32
43 43 43 43 43 42 42 42 42 41 40 40 40 40 40 39 38 38 38 38 38 38 38 38 37 37 37 37 36 35 34 34 34 34 33 33 33 32 32 32 32 31 30
42 42 42 41 41 41 40 40 39 39 39 38 38 38 37 37 37 37 37 37 37 37 37 36 36 36 36 35 35 34 33 33 32 32 31 31 31 31 30 29 28 28 27
40 40 40 40 39 39 39 38 38 38 37 37 37 37 36 36 36 36 36 36 36 36 35 34 34 34 33 33 32 32 31 31 31 30 29 29 29 28 27 26 26 25 25
39 39 38 38 38 37 37 37 37 37 37 37 36 36 35 35 35 35 35 34 34 33 32 32 32 31 31 31 30 30 29 29 28 27 27 27 26 25 24 24 23 23 23
38 38 38 37 37 36 36 36 36 36 36 35 35 34 34 34 34 34 33 33 32 31 31 31 30 30 29 29 28 28 27 26 26 25 24 24 23 23 22 22 21 21 20
Wind_Direction
250 251 253 256 260 263 264 265 266 268 270 273 275 275 275 276 276 277 277 277 277 276 276 276 276 277 278 279 279 280 281 281 282 283 284 285 285 285 285 286 287 288 288
255 257 258 260 263 265 268 269 270 271 273 275 276 276 276 276 277 277 278 278 277 277 277 276 276 276 277 278 279 280 281 282 282 283 284 285 285 286 286 286 287 288 289
259 259 260 261 263 266 268 270 272 274 275 276 277 277 278 277 277 278 278 279 279 278 278 277 277 277 278 278 279 280 281 282 283 283 284 284 285 285 286 287 288 288 289
263 262 261 262 264 266 269 271 273 275 277 278 278 278 278 278 278 278 279 279 280 280 278 278 277 278 278 278 279 280 281 282 283 283 284 284 285 285 286 287 288 288 288
263 263 262 263 265 267 269 271 273 275 276 277 278 278 278 278 278 278 278 279 279 279 279 279 278 278 279 279 279 280 281 282 283 284 284 284 285 285 286 287 287 288 288
264 265 265 265 266 268 270 272 274 276 277 277 277 278 278 278 279 278 279 279 279 279 280 279 279 279 279 279 280 280 281 283 284 284 284 285 285 286 286 287 288 288 288
267 267 267 267 268 270 272 274 275 277 277 278 278 278 279 279 279 280 280 281 281 281 280 280 280 280 280 280 280 281 282 283 284 284 285 286 286 286 287 287 288 288 289
269 269 270 270 270 272 273 274 275 277 278 278 278 278 279 279 280 280 281 282 282 282 281 281 280 280 280 280 280 281 281 282 283 284 285 285 286 287 287 287 288 289 290
270 270 270 271 271 273 274 276 276 277 278 278 279 279 279 279 280 280 281 282 282 282 281 281 281 280 280 281 281 281 281 282 283 283 284 285 286 287 288 288 289 289 289
272 272 272 272 273 274 275 276 277 277 278 279 279 279 280 280 281 281 282 283 282 282 281 281 282 281 281 281 281 281 281 281 282 283 284 285 286 287 288 289 289 289 289
273 273 273 273 274 275 275 276 277 278 278 278 279 279 280 280 281 282 282 283 282 282 282 282 281 281 282 282 282 282 282 282 282 283 283 284 286 286 287 288 288 288 288
274 273 273 273 274 275 276 277 278 278 278 278 279 279 280 281 281 282 282 282 282 283 282 282 282 281 281 282 282 282 283 283 283 283 283 284 285 285 286 287 287 287 288
274 274 273 274 275 276 277 277 277 278 279 279 279 280 280 281 282 282 282 282 282 282 283 283 282 282 282 283 282 282 283 283 283 284 284 285 286 286 286 286 287 287 288
276 276 275 275 276 277 277 278 278 278 279 279 279 280 281 281 282 282 282 282 282 282 283 283 283 283 283 283 282 282 283 283 284 284 285 285 285 286 286 286 287 287 287
278 278 277 277 278 278 278 278 278 278 279 279 280 280 281 281 282 282 282 282 282 282 282 283 283 283 283 283 283 283 283 283 284 285 285 285 285 285 286 286 286 286 286
279 279 279 279 279 279 279 279 280 280 280 281 281 282 282 282 282 281 282 282 282 282 283 284 283 283 283 283 284 284 284 284 284 285 285 285 285 285 285 286 286 286 286
280 280 280 280 279 279 280 280 280 280 280 281 282 282 282 282 282 282 282 282 282 283 284 284 283 283 284 284 285 285 285 284 285 285 285 285 285 285 285 286 286 286 286
281 281 281 281 280 280 280 280 280 281 281 281 281 282 281 282 283 282 282 281 282 283 284 284 284 284 284 285 286 286 286 286 285 285 286 286 286 286 286 286 286 286 286
281 281 281 281 280 280 280 280 281 282 282 282 282 281 281 282 282 282 282 282 282 283 283 283 284 285 286 286 287 287 287 286 286 285 286 286 286 287 287 287 287 287 287
281 281 281 281 281 281 281 281 282 282 282 283 282 282 281 281 281 282 282 282 282 282 282 284 285 286 286 287 288 288 287 287 286 286 286 286 287 287 288 287 287 287 287
281 281 282 282 283 283 283 282 282 282 282 282 282 282 282 282 282 282 282 283 282 282 283 284 285 286 287 288 288 288 287 286 285 286 286 286 287 287 288 287 288 288 287
281 282 282 283 283 283 283 283 283 282 282 282 282 282 282 282 282 282 283 282 282 283 284 285 286 286 287 287 287 287 285 285 285 286 287 287 286 287 288 287 287 287 287
281 281 282 282 283 283 283 283 283 283 283 282 281 282 282 281 282 282 283 283 282 283 285 285 285 286 286 287 287 286 285 285 286 286 286 286 286 287 288 287 287 287 287
280 281 282 283 284 284 283 283 283 284 283 283 282 281 280 281 281 282 283 283 283 283 284 285 285 286 286 287 288 287 284 284 286 286 285 286 287 287 287 287 286 286 286
281 281 281 282 284 284 284 284 284 284 284 284 282 280 279 280 281 282 282 282 283 283 284 285 286 287 287 287 287 286 285 284 286 286 286 287 287 286 285 285 285 285 285
281 280 281 282 282 283 283 284 284 284 284 283 282 280 279 280 280 281 282 281 281 281 283 284 285 286 287 288 287 285 284 285 285 285 285 286 286 285 284 283 284 285 284
Height
5696 5698 5700 5701 5702 5703 5704 5704 5705 5705 5705 5705 5704 5704 5703 5702 5701 5700 5699 5698 5697 5696 5694 5693 5693 5691 5690 5688 5687 5685 5684 5682 5681 5679 5676 5674 5671 5669 5666 5664 5661 5658 5655
5689 5690 5691 5693 5694 5695 5695 5695 5695 5695 5695 5694 5693 5692 5691 5690 5689 5688 5687 5686 5684 5683 5682 5680 5679 5678 5677 5675 5674 5672 5670 5668 5667 5666 5663 5660 5657 5655 5652 5650 5647 5644 5641
5681 5682 5683 5684 5685 5685 5685 5685 5685 5684 5684 5683 5682 5681 5679 5678 5677 5675 5674 5673 5671 5670 5668 5667 5666 5664 5663 5662 5660 5658 5656 5654 5653 5651 5649 5646 5644 5641 5638 5636 5633 5630 5627
5673 5673 5674 5674 5675 5675 5675 5674 5674 5674 5673 5672 5670 5669 5668 5666 5664 5663 5661 5660 5658 5657 5655 5653 5652 5651 5649 5648 5646 5644 5642 5640 5638 5637 5635 5632 5629 5626 5624 5621 5619 5615 5612
5664 5664 5664 5664 5665 5664 5664 5664 5663 5662 5661 5660 5658 5656 5655 5653 5651 5650 5648 5646 5645 5643 5641 5640 5638 5637 5635 5633 5632 5630 5628 5626 5624 5622 5620 5618 5615 5612 5609 5606 5604 5601 5598
5654 5654 5654 5654 5654 5654 5653 5652 5651 5650 5648 5647 5645 5643 5642 5640 5638 5636 5634 5633 5631 5629 5628 5626 5624 5622 5620 5619 5617 5615 5613 5611 5610 5608 5605 5603 5600 5596 5594 5591 5589 5586 5583
5643 5643 5643 5643 5642 5642 5641 5640 5638 5637 5635 5634 5632 5630 5628 5626 5624 5622 5620 5619 5617 5615 5613 5612 5610 5608 5606 5604 5602 5600 5599 5596 5595 5593 5590 5588 5585 5582 5579 5576 5573 5570 5567
5632 5631 5631 5630 5630 5629 5628 5627 5625 5623 5622 5620 5618 5616 5614 5612 5610 5608 5606 5605 5603 5601 5598 5596 5595 5592 5590 5589 5587 5586 5584 5582 5579 5577 5576 5573 5569 5566 5563 5560 5556 5554 5551
5619 5619 5618 5617 5617 5616 5614 5613 5612 5610 5608 5606 5604 5602 5601 5598 5596 5594 5592 5590 5588 5586 5584 5581 5579 5577 5575 5573 5572 5571 5569 5567 5564 5562 5559 5557 5553 5550 5546 5544 5541 5537 5535
5606 5605 5605 5604 5603 5602 5601 5599 5597 5596 5594 5592 5590 5588 5586 5584 5582 5579 5577 5575 5573 5571 5568 5566 5564 5561 5559 5557 5556 5555 5553 5551 5549 5546 5544 5541 5538 5534 5531 5528 5525 5522 5520
5592 5592 5591 5589 5588 5587 5586 5584 5583 5581 5580 5578 5576 5574 5571 5569 5567 5564 5562 5560 5557 5555 5553 5551 5548 5546 5544 5542 5540 5539 5537 5535 5533 5531 5528 5525 5523 5519 5516 5513 5510 5507 5505
5579 5577 5576 5575 5574 5572 5571 5569 5567 5566 5564 5562 5560 5559 5556 5554 5551 5549 5546 5544 5542 5540 5538 5535 5533 5531 5529 5527 5525 5523 5521 5519 5517 5515 5513 5510 5507 5504 5501 5498 5496 5493 5490
5564 5563 5561 5560 5559 5557 5555 5554 5552 5550 5549 5547 5545 5543 5541 5539 5536 5533 5531 5529 5526 5524 5522 5520 5518 5516 5514 5512 5510 5507 5505 5503 5501 5499 5497 5495 5492 5489 5486 5484 5481 5479 5476
5550 5549 5547 5545 5544 5542 5540 5538 5537 5535 5533 5531 5529 5528 5526 5524 5521 5519 5516 5514 5512 5510 5508 5506 5503 5501 5499 5496 5494 5492 5490 5488 5485 5484 5481 5479 5477 5475 5472 5470 5467 5465 5462
5536 5534 5532 5530 5529 5527 5525 5523 5522 5520 5518 5516 5514 5512 5510 5509 5506 5504 5501 5499 5497 5495 5493 5491 5489 5487 5484 5482 5479 5477 5475 5473 5471 5468 5466 5464 5462 5460 5458 5455 5453 5450 5449
5521 5519 5517 5516 5514 5512 5511 5509 5507 5505 5503 5501 5499 5497 5495 5493 5491 5489 5487 5485 5482 5480 5478 5477 5475 5472 5470 5467 5465 5463 5460 5458 5456 5454 5452 5450 5448 5445 5443 5441 5438 5436 5434
5507 5505 5503 5501 5499 5498 5496 5495 5493 5491 5489 5486 5484 5482 5480 5478 5476 5474 5472 5470 5468 5466 5464 5462 5460 5457 5455 5453 5450 5448 5446 5444 5442 5440 5438 5436 5433 5431 5429 5427 5425 5423 5421
5492 5490 5488 5487 5485 5483 5481 5480 5478 5477 5475 5473 5470 5467 5465 5464 5462 5459 5458 5456 5454 5452 5450 5448 5446 5443 5441 5439 5437 5435 5432 5430 5428 5426 5424 5422 5420 5418 5416 5414 5412 5410 5408
5477 5476 5474 5472 5470 5468 5467 5465 5463 5461 5459 5458 5456 5453 5451 5450 5448 5446 5444 5442 5441 5439 5437 5435 5432 5430 5428 5426 5424 5422 5419 5417 5415 5413 5411 5410 5407 5405 5403 5401 5400 5398 5396
5463 5461 5459 5458 5456 5454 5452 5450 5448 5447 5445 5443 5441 5440 5438 5436 5435 5433 5431 5429 5427 5426 5424 5422 5420 5418 5416 5414 5411 5409 5407 5405 5403 5401 5400 5398 5396 5394 5392 5390 5389 5387 5385
5449 5448 5446 5444 5442 5440 5438 5436 5434 5433 5431 5430 5428 5426 5425 5423 5422 5420 5419 5417 5415 5414 5412 5410 5408 5406 5404 5402 5400 5397 5396 5394 5392 5390 5389 5387 5386 5384 5382 5380 5379 5377 5375
5436 5435 5433 5431 5429 5427 5425 5423 5421 5420 5418 5417 5416 5414 5412 5411 5409 5408 5407 5405 5404 5402 5400 5399 5397 5395 5393 5391 5389 5387 5385 5384 5382 5380 5379 5377 5376 5374 5372 5371 5369 5367 5366
5423 5421 5420 5418 5416 5415 5413 5411 5409 5408 5406 5405 5403 5402 5400 5399 5398 5397 5395 5394 5392 5391 5389 5387 5386 5384 5382 5380 5378 5376 5375 5374 5372 5370 5369 5368 5366 5365 5363 5361 5360 5359 5357
5410 5409 5407 5406 5404 5402 5401 5399 5397 5396 5394 5393 5391 5390 5389 5388 5387 5385 5384 5383 5381 5380 5378 5376 5375 5373 5371 5370 5368 5366 5365 5364 5362 5361 5360 5359 5357 5356 5354 5353 5352 5351 5350
5397 5396 5395 5393 5392 5390 5389 5388 5386 5384 5383 5381 5380 5379 5378 5377 5375 5374 5373 5372 5371 5369 5368 5366 5365 5363 5362 5360 5359 5357 5356 5355 5353 5352 5351 5350 5349 5348 5347 5346 5345 5344 5343
5385 5384 5383 5382 5380 5379 5378 5376 5375 5373 5372 5370 5369 5368 5367 5366 5365 5364 5363 5361 5360 5359 5358 5357 5355 5354 5353 5351 5350 5348 5347 5346 5345 5344 5343 5342 5341 5341 5340 5339 5338 5337 5336